Other Public Products
Issued by NWS Grand Forks, ND

Home | Current Version | Previous Version | Graphics & Text | Print | Product List | Glossary On
Versions: 1 2 3 4 5 6 7 8 9 10 11 12 13 14 15 16 17 18 19 20 21 22 23 24 25 26 27 28 29 30 31 32 33 34 35 36 37 38 39 40 41 42 43 44 45 46 47 48 49 50
578
FPUS83 KFGF 261531
OPUFGF
PRAIRIE TO PINES WEATHER ROUNDUP
NATIONAL WEATHER SERVICE EASTERN NORTH DAKOTA/GRAND FORKS ND
1000 AM CDT FRI MAY 26 2017

 **SATELLITE DATA USED TO AUGMENT SKY COVER AT AUTOMATED STATIONS**
 *****  WEATHER ACROSS EASTERN NORTH DAKOTA  *****

CITY           SKY/WX    TMP DP  RH WIND       PRES   REMARKS
GRAND FORKS    FAIR      65  50  58 W10       29.63S
GRAND FORKS AF FAIR      64  49  59 W12       29.64R
GRAND CITY NWS NOT AVBL
BUXTON           N/A     66  49  54 W13         N/A
DEVILS LAKE    PTSUNNY   57  45  62 W20G26    29.67S
FARGO          FAIR      64  49  57 W8        29.67S
WAHPETON ARPT  FAIR      63  46  55 W12       29.72R
$$

 *****  WEATHER ACROSS CENTRAL AND WESTERN NORTH DAKOTA  *****

CITY           SKY/WX    TMP DP  RH WIND       PRES   REMARKS
JAMESTOWN      FAIR      59  45  59 W18G26    29.70S
BISMARCK       CLOUDY    56  40  55 W20G26    29.77R
MINOT          CLOUDY    56  43  61 W25G33    29.68R
MINOT AFB      CLOUDY    54  45  71 W21G29    29.67R
GARRISON         N/A     53  41  63 W22       29.72R
WILLISTON      CLOUDY    55  42  61 NW21G29   29.76R
DICKINSON      PTSUNNY   53  37  54 NW28G36   29.78S
HETTINGER      FAIR      56  37  49 NW29G40   29.82F
$$

 *****  OTHER OBSERVATIONS NORTHEAST NORTH DAKOTA  *****

CITY           SKY/WX    TMP DP  RH WIND       PRES   REMARKS
WALHALLA       NOT AVBL
LANGDON        FAIR      61  50  67 W18       29.64R
CAVALIER       PTSUNNY   61  48  63 SW14      29.61R
GRAFTON        FAIR      64  50  59 W12G18    29.64S
CANDO          NOT AVBL
FORT TOTTEN      N/A     57  46  67 NW8       29.95S
ROLLA          CLOUDY    52  48  87 W13G20    29.65R
RUGBY          NOT AVBL
 ***** THE ABOVE OBSERVATIONS ARE NON NWS ARE NOT QUALITY
        CONTROLLED AND MAY MIS-REPORT RAIN FOR SNOW...
$$

 *****  OTHER OBSERVATIONS SOUTHEAST NORTH DAKOTA *****

CITY           SKY/WX    TMP DP  RH WIND       PRES   REMARKS
COOPERSTOWN    FAIR      61  46  59 W20       29.69S
VALLEY CITY    FAIR      61  48  63 W18       29.72S
OAKES          NOT AVBL
GWINNER        SUNNY     63  48  59 MISG      29.73S
SHEYENNE NWR     N/A     63  48  59 NW12      29.95S
BUFFALO          N/A     62  42  47 SE13        N/A
WYNDMERE         N/A     64  48  55 W15         N/A
 ***** THE ABOVE OBSERVATIONS ARE NON NWS ARE NOT QUALITY
       CONTROLLED AND MAY MIS-REPORT RAIN FOR SNOW...
$$

  *****  WEATHER ACROSS NORTHERN MINNESOTA  *****

CITY           SKY/WX    TMP DP  RH WIND       PRES   REMARKS
FLAG ISLAND    FAIR      55  54  94 SE8       29.60F
WARROAD        FAIR      64  52  63 SW5       29.62S
ROSEAU         FAIR      64  50  59 S3        29.62S
HALLOCK        PTSUNNY   64  48  55 W8        29.61R
THF RVR FALLS  FAIR      63  48  58 SW9       29.65R
HALSTAD          N/A     65  48  54 W9          N/A
FOSSTON        FAIR      64  46  52 SW6       29.66S
BAUDETTE       CLOUDY    65  55  70 S7        29.63R
WASKISH        PTSUNNY   64  55  72 W9        29.65R
CROOKSTON      FAIR      64  48  55 W3        29.65S
$$
  *****  WEATHER ACROSS CENTRAL AND WEST MINNESOTA  *****

CITY           SKY/WX    TMP DP  RH WIND       PRES   REMARKS
BEMIDJI        FAIR      66  50  55 W8        29.66S
PARK RAPIDS    FAIR      67  50  54 NW6       29.67R
WADENA         FAIR      64  52  63 CALM      29.69R
DETROIT LAKES  FAIR      64  46  52 W6        29.70R
MOORHEAD       FAIR      64  48  55 W10       29.69S
FERGUS FALLS   FAIR      63  50  63 W8        29.70R
ELBOW LAKE     FAIR      62  50  65 NW8       29.72S
MORRIS MN      FAIR      64  52  63 NW10      29.72R
STAPLES        FAIR      64  54  68 SW7       29.69R
WHEATON        FAIR      64  48  55 W7        29.74R
$$
  *****  WEATHER ELSEWHERE ACROSS MINNESOTA  *****

CITY           SKY/WX    TMP DP  RH WIND       PRES   REMARKS
DULUTH         CLOUDY    54  49  83 SE8       29.74R
INTRNTL FALLS  FAIR      64  53  67 VRB7      29.64F
ELY            RAIN      59  52  77 S6        29.72S
CLOQUET        PTSUNNY   54  46  76 E7        29.72F
BRAINERD       FAIR      65  55  70 VRB6      29.69S
HIBBING        FAIR      59  53  80 S9        29.70S
ALEXANDRIA     FAIR      63  51  65 W13       29.71R
SAINT CLOUD    FAIR      66  57  72 S5        29.70R
MINNEAPOLIS    PTSUNNY   66  53  63 S9        29.74R
$$

  *****  WEATHER ACROSS SOUTH DAKOTA  *****

CITY           SKY/WX    TMP DP  RH WIND       PRES   REMARKS
SIOUX FALLS    FAIR      65  51  60 NW15G21   29.80R
BROOKINGS      FAIR      63  50  63 NW14      29.78R
WATERTOWN      FAIR      60  48  64 W8        29.77R
HURON          FAIR      62  45  53 NW14      29.81R
SISSETON         N/A     64  49  57 NW14      29.72R
ABERDEEN       FAIR      63  40  42 W16G24    29.78R
MITCHELL       FAIR      65  47  52 NW16      29.83R
PIERRE         FAIR      60  39  45 NW21G26   29.85R
MOBRIDGE       FAIR      59  39  47 NW23G33   29.78R
RAPID CITY     FAIR      60  34  37 N13       29.91R
$$

  *****  SOME WEATHER IN NEARBY STATES *****

CITY           SKY/WX    TMP DP  RH WIND       PRES   REMARKS
GLASGOW MT     FAIR      58  40  51 NW10      29.84R
GREAT FALLS MT FAIR      51  38  60 W3        29.96S
CHEYENNE WY    CLOUDY    50  36  58 S10       30.00R
SCOTTSBLUFF NE FAIR      55  38  52 NW7       29.97R
OMAHA NE       PTSUNNY   71  58  63 N13       29.75R
DES MOINES IA  CLOUDY    64  59  83 VRB3      29.73F
DAVENPORT IA   FAIR      68  55  63 SE14G22   29.75S
CHICAGO IL     PTSUNNY   68  55  63 SE12      29.86S
EAU CLAIRE WI  FAIR      69  54  58 S13       29.77R
LA CROSSE WI   FAIR      70  58  65 VRB3      29.77F
$$

  *****  SOME NATIONAL WEATHER *****

CITY           SKY/WX    TMP DP  RH WIND       PRES   REMARKS
LA GUARDIA NY  PTSUNNY   67  57  70 W8        29.58S
RALEIGH NC     FAIR      73  56  54 W15G21    29.92F
ATLANTA GA     FAIR      73  53  49 W10       30.06S
NEW ORLEANS LA FAIR      79  67  66 S16G22    30.02R
OKLAHOMA CITY  FAIR      77  56  48 W10       29.70R
ALBUQUERQUE NM FAIR      69  14  12 W6        30.06S
SALT LAKE CITY PTSUNNY   57  37  47 N13       29.79R
LOS ANGELES CA CLOUDY    63  53  70 CALM      29.96R
BOISE ID       FAIR      51  43  74 W8        29.88R
SEATTLE WA     FAIR      58  49  72 CALM      29.97R
$$

*** WEATHER ACROSS MANITOBA...SASKATCHEWAN AND ONTARIO ***
                ***ONTARIO***

CITY           SKY/WX    TMP DP  RH WIND       PRES   REMARKS
GERALDTON      PTSUNNY   64  48  55 S8        29.81F
THUNDER BAY    CLOUDY    55  46  71 E10       29.79S
SIOUX LOOKOUT  LGT RAIN  55  48  76 S7        29.68R
TORONTO        PTSUNNY   63  54  72 N9        29.70R
BIG TROUT LK   SUNNY     64  43  45 SE8       29.66F
PICKLE LAKE    LGT RAIN  61  54  77 S6        29.72
DRYDEN         CLOUDY    55  54  94 S10       29.65S
KENORA         CLOUDY    59  52  77 SW9G17    29.62S
$$
                *** MANITOBA***

CITY           SKY/WX    TMP DP  RH WIND       PRES   REMARKS
BRANDON        CLOUDY    55  46  71 W16       29.57R
DAUPHIN        MOSUNNY   61  48  63 W23G31    29.47R
ISLAND LAKE    NOT AVBL
PILOT MOUND      N/A     55  45  67 W10         N/A
THE PAS        LGT RAIN  48  48 100 NW9       29.36S FOG
THOMPSON       CLOUDY    59  46  63 E9        29.46F
WINNIPEG       MOSUNNY   63  48  59 SW10G17   29.57S
LYNN LAKE      CLOUDY    52  48  87 N5        29.51F
CHURCHILL      CLOUDY    37  34  87 E15       29.68S
GILLAM         CLOUDY    57  39  51 E5        29.55F
$$
                ***SASKATCHEWAN***

CITY           SKY/WX    TMP DP  RH WIND       PRES   REMARKS
ESTEVAN        PTSUNNY   52  45  76 W24       29.69R
KINDERSLEY     PTSUNNY   48  43  81 W12G17    29.77R
LLOYDMINSTER   MOSUNNY   52  41  66 NW7       29.74R
PRINCE ALBERT  CLOUDY    52  45  76 NW13G22   29.58R
REGINA         CLOUDY    52  43  71 NW24G31   29.67R
YORKTON          N/A     54  48  82 W23G29    29.52R



USA.gov is the U.S. government's official web portal to all federal, state and local government web resources and services.